Zurück zum Katalog

STARLINK-35692

AktivKommunikationVLEO
NORAD 66513·PAYLOAD·🇺🇸 United States

Gestartet Nov 15, 2025 von Cape Canaveral Space Force Station

Loading…

Nächste Überflüge (nächste 24 Stunden)

TLE

AktuellSource: CelesTrak SupGP

Epoche: Sep 15, 2026, 02:47 UTC

1 66513C 25263AE  26258.11645833  .00026157  00000+0  94723-3 0  2589
2 66513  43.0037   1.0668 0001764 264.5478 231.8232 15.27571600    11

Verfolge STARLINK-35692 in Echtzeit mit AllMySat

Download on the App Store